Regional Weather Roundup
Issued by NWS State College, PA

Home | Current Version | Previous Version | Graphics & Text | Print | Product List | Glossary On
Versions: 1 2 3 4 5 6 7 8 9 10 11 12 13 14 15 16 17 18 19 20 21 22 23 24 25 26 27 28 29 30 31 32 33 34 35 36 37 38 39 40 41 42 43 44 45 46 47 48 49 50
000
ASUS41 KCTP 270010
RWRCTP

REGIONAL WEATHER ROUNDUP
NATIONAL WEATHER SERVICE STATE COLLEGE PA
800 PM EDT FRI MAY 26 2017

Note: "fair" indicates few or no clouds below 12,000 feet with no
significant weather and/or obstructions to visibility.

* = STATION THAT DOES NOT REPORT PRECIPITATION /E.G. RAIN...SNOW...ETC/
    THUNDER OR FOG.

PAZ002>004-007>009-013>016-020>023-029>032-270100-
WESTERN PENNSYLVANIA

CITY           SKY/WX    TMP DP  RH WIND       PRES   REMARKS
ERIE           CLOUDY    57  53  86 W8        29.90R
MEADVILLE      CLOUDY    58  54  86 W3        29.91R
FRANKLIN*      CLOUDY    57  52  82 CALM      29.92R
NEW CASTLE     MOCLDY    63  52  67 NW9G16    29.91S
BEAVER COUNTY  PTCLDY    63  54  72 NW6       29.91R
BUTLER*        CLEAR     63  52  67 W6        29.91R
PITTSBURGH INT PTCLDY    65  54  67 NW9       29.90R
PITTSBURGH     CLEAR     65  51  60 N6        29.90R
INDIANA*       CLOUDY    63  54  72 NW8       29.94R
LATROBE        MOCLDY    64  55  72 NW7       29.92R
WASHINGTON CO* PTCLDY    64  54  68 N3        29.92R
$$

PAZ004>006-010>012-017>019-024>028-033>037-041-042-045-046-049>053-270100-
CENTRAL PENNSYLVANIA

CITY           SKY/WX    TMP DP  RH WIND       PRES   REMARKS
BRADFORD       CLOUDY    54  52  93 W8        29.89R
DUBOIS         CLOUDY    56  50  80 W7G17     29.90R
CLEARFIELD     CLOUDY    59  52  77 NW13      29.90R
JOHNSTOWN      PTCLDY    58  52  80 NW12      29.91R
ALTOONA        CLOUDY    64  52  64 NW12      29.90R
STATE COLLEGE  MOCLDY    61  52  72 W14       29.88R
WILLIAMSPORT   CLOUDY    65  54  67 NW8       29.81R
SELINSGROVE    CLOUDY    67  53  61 W7G17     29.83R
FT INDIANTOWN  PTCLDY    67  52  59 W12G26    29.82R
CAPITAL CITY   PTCLDY    69  49  48 NW10G21   29.83R
HARRISBURG     MOCLDY    67  52  58 NW16G25   29.82R
YORK           MOCLDY    66  54  65 W7        29.84R
$$

PAZ038>040-043-044-047-048-054-055-060>062-067>071-270100-
EASTERN PENNSYLVANIA

CITY           SKY/WX    TMP DP  RH WIND       PRES   REMARKS
SCRANTON       MOCLDY    65  55  70 NW10      29.79R
MOUNT POCONO   PTCLDY    59  53  80 NW8       29.79R
ALLENTOWN      CLOUDY    68  53  58 NW7G16    29.77R
QUAKERTOWN*    CLOUDY    66  54  63 W10       29.78R
READING        CLOUDY    69  55  60 W15       29.79R
LANCASTER      MOCLDY    68  55  63 W15       29.81R
COATESVILLE    CLOUDY    66  55  68 W10       29.82R
POTTSTOWN      CLOUDY    67  53  61 W8        29.80R
BLUE BELL      CLOUDY    66  54  63 W7        29.79R
DOYLESTOWN     CLOUDY    67  54  63 W8        29.76R
WILLOW GROVE   NOT AVBL
NORTH PHILA    CLOUDY    71  53  52 W15G25    29.77R
PHILADELPHIA   CLOUDY    72  52  49 W15       29.78R
$$



USA.gov is the U.S. government's official web portal to all federal, state and local government web resources and services.